Weather History for Stanley, ND

Change the Weather History Date:

Thursday, December 5, 2013

  Actual Average (KMOT) Record (KMOT)
Temperature  
Mean Temperature -8 °F 19 °F  
Max Temperature -2 °F 27 °F 60 °F (1913)
Min Temperature -13 °F 11 °F -20 °F (1922)
Degree Days  
Heating Degree Days 72 46  
Month to date heating degree days 228  
Since 1 July heating degree days 2286  
Moisture  
Dew Point -13 °F    
Average Humidity 77    
Maximum Humidity 84    
Minimum Humidity 71    
Precipitation  
Precipitation 0.02 in 0.02 in 0.29 in (2001)
Month to date precipitation 0.07  
Year to date precipitation 16.88  
Sea Level Pressure  
Sea Level Pressure 30.13 in    
Wind  
Wind Speed 18 mph (NW)    
Max Wind Speed 23 mph    
Max Gust Speed 32 mph    
Visibility 10 miles    
Events Rain , Snow    
T = Trace of Precipitation, MM = Missing Value Source: NWS Daily Summary

Daily Weather History Graph

Daily Weather History Graph

Search for Another Location

Airport:

Trip Planner

Search our weather history database for the weather conditions in past years. The results will help you decide how hot, cold, wet, or windy it might be!

Date:

Astronomy

Dec. 05, 2013 Rise Set
Actual Time 8:24 AM CST 4:55 PM CST
Civil Twilight 7:48 AM CST 5:32 PM CST
Nautical Twilight 7:09 AM CST 6:11 PM CST
Astronomical Twilight 6:31 AM CST 6:49 PM CST
Moon 10:39 AM CST (12/5) 8:27 PM CST (12/5)
Length of Visible Light 9h 43m
Length of Day
8h 31m
Waxing Crescent, 11% of the Moon is Illuminated
Dec 5
Waxing Crescent
Dec 9
First Quarter
Dec 17
Full
Dec 25
Last Quarter
Jan 1
New

Hourly Weather History & Observations

Time (CST) Temp. Windchill Dew Point Humidity Pressure Visibility Wind Dir Wind Speed Gust Speed Precip Events Conditions
12:15 AM -4.0 °F -28.1 °F -9.4 °F 78% 30.03 in 10.0 mi NW 21.9 mph 31.1 mph N/A Snow Light Snow
12:35 AM -5.8 °F -29.9 °F -11.2 °F 77% 30.03 in 10.0 mi NW 20.7 mph 29.9 mph N/A   Overcast
12:55 AM -5.8 °F -31.0 °F -11.2 °F 77% 30.04 in 10.0 mi NW 23.0 mph 32.2 mph N/A   Overcast
1:15 AM -5.8 °F -29.4 °F -9.4 °F 84% 30.03 in 10.0 mi NW 19.6 mph 27.6 mph N/A   Overcast
1:35 AM -5.8 °F -31.0 °F -9.4 °F 84% 30.03 in 10.0 mi NW 23.0 mph 31.1 mph N/A   Overcast
1:55 AM -7.6 °F -27.5 °F -11.2 °F 84% 30.04 in 10.0 mi NW 12.7 mph 23.0 mph N/A   Overcast
2:15 AM -7.6 °F -29.1 °F -11.2 °F 84% 30.04 in 10.0 mi NW 15.0 mph 20.7 mph N/A   Overcast
2:35 AM -7.6 °F -31.1 °F -11.2 °F 84% 30.04 in 10.0 mi NW 18.4 mph 26.5 mph N/A   Mostly Cloudy
2:55 AM -7.6 °F -31.1 °F -11.2 °F 84% 30.04 in 10.0 mi WNW 18.4 mph 26.5 mph N/A   Clear
3:15 AM -7.6 °F -31.7 °F - N/A% 30.05 in 10.0 mi WNW 19.6 mph 26.5 mph N/A   Partly Cloudy
3:35 AM -7.6 °F -30.5 °F -13.0 °F 77% 30.05 in 10.0 mi WNW 17.3 mph 24.2 mph N/A   Mostly Cloudy
3:55 AM -9.4 °F -32.8 °F -13.0 °F 84% 30.05 in 10.0 mi WNW 17.3 mph - N/A   Mostly Cloudy
4:15 AM -9.4 °F -31.4 °F -13.0 °F 84% 30.06 in 10.0 mi WNW 15.0 mph 23.0 mph N/A   Clear
4:35 AM -9.4 °F -32.1 °F -13.0 °F 84% 30.06 in 10.0 mi WNW 16.1 mph 19.6 mph N/A   Clear
4:55 AM -11.2 °F -32.9 °F -16.6 °F 77% 30.06 in 10.0 mi WNW 13.8 mph 19.6 mph N/A   Clear
5:15 AM -11.2 °F -34.4 °F -16.6 °F 77% 30.06 in 10.0 mi WNW 16.1 mph - N/A   Clear
5:35 AM -11.2 °F -35.2 °F -16.6 °F 77% 30.06 in 10.0 mi WNW 17.3 mph - N/A   Clear
5:55 AM -11.2 °F -35.2 °F -16.6 °F 77% 30.06 in 10.0 mi WNW 17.3 mph 23.0 mph N/A   Mostly Cloudy
6:15 AM -11.2 °F -34.4 °F -16.6 °F 77% 30.05 in 10.0 mi WNW 16.1 mph 24.2 mph N/A   Overcast
6:35 AM -11.2 °F -35.8 °F -16.6 °F 77% 30.06 in 10.0 mi WNW 18.4 mph 26.5 mph N/A   Mostly Cloudy
6:55 AM -11.2 °F -35.8 °F -16.6 °F 77% 30.06 in 10.0 mi WNW 18.4 mph - N/A   Scattered Clouds
7:15 AM -11.2 °F -35.2 °F -16.6 °F 77% 30.07 in 10.0 mi WNW 17.3 mph 23.0 mph N/A   Mostly Cloudy
7:35 AM - - - N/A% 30.07 in 10.0 mi WNW 18.4 mph 24.2 mph N/A   Mostly Cloudy
7:55 AM - - - N/A% 30.07 in 10.0 mi WNW 16.1 mph 25.3 mph N/A   Unknown
8:15 AM -13.0 °F -36.0 °F -18.4 °F 77% 30.07 in 10.0 mi WNW 15.0 mph 21.9 mph N/A   Scattered Clouds
8:35 AM -13.0 °F -37.5 °F -18.4 °F 77% 30.08 in 10.0 mi WNW 17.3 mph 20.7 mph N/A   Scattered Clouds
8:55 AM -13.0 °F -37.5 °F -16.6 °F 84% 30.08 in 10.0 mi WNW 17.3 mph 23.0 mph N/A   Overcast
9:15 AM -11.2 °F -33.7 °F -16.6 °F 77% 30.09 in 10.0 mi WNW 15.0 mph 21.9 mph N/A Snow Light Snow
9:35 AM -11.2 °F -34.4 °F -16.6 °F 77% 30.09 in 10.0 mi WNW 16.1 mph 20.7 mph N/A   Overcast
9:55 AM -11.2 °F -34.4 °F -16.6 °F 77% 30.09 in 10.0 mi WNW 16.1 mph 24.2 mph N/A   Mostly Cloudy
10:15 AM -9.4 °F -32.8 °F -16.6 °F 71% 30.10 in 10.0 mi WNW 17.3 mph 23.0 mph N/A   Mostly Cloudy
10:35 AM -9.4 °F -34.7 °F -14.8 °F 77% 30.10 in 10.0 mi WNW 20.7 mph 25.3 mph N/A Snow Light Snow
10:55 AM -9.4 °F -34.1 °F -14.8 °F 77% 30.11 in 10.0 mi WNW 19.6 mph 28.8 mph N/A Rain Light Freezing Rain
11:15 AM -7.6 °F -31.7 °F -13.0 °F 77% 30.11 in 10.0 mi WNW 19.6 mph 27.6 mph N/A Rain Light Freezing Rain
11:35 AM -7.6 °F -31.7 °F -13.0 °F 77% 30.11 in 10.0 mi WNW 19.6 mph 25.3 mph N/A   Clear
11:55 AM -7.6 °F -31.1 °F -13.0 °F 77% 30.12 in 10.0 mi NW 18.4 mph 25.3 mph N/A   Clear
12:15 PM -5.8 °F -28.2 °F -13.0 °F 71% 30.11 in 10.0 mi WNW 17.3 mph 26.5 mph N/A   Scattered Clouds
12:35 PM -5.8 °F -28.8 °F -13.0 °F 71% 30.11 in 10.0 mi WNW 18.4 mph - N/A Snow Light Snow
12:55 PM -4.0 °F -24.5 °F -11.2 °F 71% 30.12 in 10.0 mi WNW 15.0 mph 21.9 mph N/A   Mostly Cloudy
1:15 PM -4.0 °F -27.0 °F -11.2 °F 71% 30.11 in 8.0 mi NW 19.6 mph 24.2 mph N/A Snow Light Snow
1:35 PM -2.2 °F -23.5 °F -9.4 °F 71% 30.12 in 9.0 mi NW 17.3 mph 26.5 mph N/A Snow Light Snow
1:55 PM -2.2 °F -25.2 °F -9.4 °F 71% 30.12 in 10.0 mi NW 20.7 mph 29.9 mph N/A   Clear
2:15 PM -2.2 °F -24.7 °F -9.4 °F 71% 30.12 in 10.0 mi NW 19.6 mph 27.6 mph N/A   Clear
2:35 PM -2.2 °F -25.7 °F -9.4 °F 71% 30.13 in 10.0 mi NW 21.9 mph 29.9 mph N/A   Clear
2:55 PM -2.2 °F -24.7 °F -9.4 °F 71% 30.13 in 10.0 mi NW 19.6 mph 25.3 mph N/A   Clear
3:15 PM -2.2 °F -23.5 °F -9.4 °F 71% 30.14 in 10.0 mi NW 17.3 mph 29.9 mph N/A Snow Light Snow
3:35 PM -2.2 °F -24.7 °F -9.4 °F 71% 30.15 in 10.0 mi NW 19.6 mph 26.5 mph N/A Snow Light Snow
3:55 PM -4.0 °F -25.8 °F -9.4 °F 78% 30.16 in 10.0 mi NW 17.3 mph 25.3 mph N/A Snow Light Snow
4:15 PM -4.0 °F -25.8 °F -9.4 °F 78% 30.16 in 9.0 mi NW 17.3 mph 26.5 mph N/A Snow Light Snow
4:35 PM -4.0 °F -25.8 °F -11.2 °F 71% 30.17 in 5.0 mi NW 17.3 mph 25.3 mph 0.01 in Snow Light Snow
4:55 PM -4.0 °F -27.0 °F -11.2 °F 71% 30.17 in 10.0 mi NW 19.6 mph 26.5 mph 0.02 in Snow Light Snow
5:15 PM -4.0 °F -24.5 °F -11.2 °F 71% 30.18 in 10.0 mi NW 15.0 mph 21.9 mph N/A Snow Light Snow
5:35 PM -5.8 °F -26.8 °F -11.2 °F 77% 30.19 in 10.0 mi NW 15.0 mph 20.7 mph N/A Rain Light Freezing Rain
5:55 PM -5.8 °F -28.2 °F -11.2 °F 77% 30.19 in 10.0 mi NW 17.3 mph 23.0 mph N/A Rain Light Freezing Rain
6:15 PM -5.8 °F -28.2 °F -11.2 °F 77% 30.20 in 10.0 mi NW 17.3 mph 24.2 mph N/A Rain Light Freezing Rain
6:35 PM -5.8 °F -27.5 °F - N/A% 30.20 in 10.0 mi NW 16.1 mph 23.0 mph N/A Rain Light Freezing Rain
6:55 PM -7.6 °F -31.1 °F -13.0 °F 77% 30.21 in 10.0 mi WNW 18.4 mph 25.3 mph N/A Rain Light Freezing Rain
7:15 PM -7.6 °F -31.1 °F -13.0 °F 77% 30.21 in 10.0 mi NW 18.4 mph 25.3 mph N/A Rain Light Freezing Rain
7:35 PM -7.6 °F -30.5 °F -13.0 °F 77% 30.22 in 10.0 mi NW 17.3 mph 24.2 mph N/A Rain Light Freezing Rain
7:55 PM -7.6 °F -29.1 °F -13.0 °F 77% 30.23 in 10.0 mi NW 15.0 mph 26.5 mph N/A Rain Light Freezing Rain
8:15 PM -9.4 °F -32.8 °F -13.0 °F 84% 30.23 in 10.0 mi NW 17.3 mph 20.7 mph N/A Rain Light Freezing Rain
8:35 PM -9.4 °F -33.5 °F -13.0 °F 84% 30.24 in 10.0 mi NW 18.4 mph 26.5 mph N/A Rain Light Freezing Rain
8:55 PM -9.4 °F -32.8 °F -13.0 °F 84% 30.24 in 10.0 mi NW 17.3 mph 26.5 mph N/A   Overcast
9:15 PM -9.4 °F -32.1 °F -14.8 °F 77% 30.24 in 10.0 mi NW 16.1 mph 24.2 mph N/A   Overcast
9:35 PM -9.4 °F -32.1 °F -14.8 °F 77% 30.25 in 10.0 mi NW 16.1 mph 23.0 mph N/A   Overcast
9:55 PM -9.4 °F -32.8 °F -14.8 °F 77% 30.25 in 10.0 mi NW 17.3 mph 24.2 mph N/A   Overcast
10:15 PM -9.4 °F -31.4 °F -14.8 °F 77% 30.26 in 10.0 mi NW 15.0 mph 23.0 mph N/A   Overcast
10:35 PM -11.2 °F -32.9 °F -16.6 °F 77% 30.27 in 10.0 mi NW 13.8 mph 17.3 mph N/A   Overcast
10:55 PM -11.2 °F -32.9 °F -16.6 °F 77% 30.27 in 10.0 mi WNW 13.8 mph - N/A   Overcast
11:15 PM -11.2 °F -32.9 °F -16.6 °F 77% 30.27 in 10.0 mi WNW 13.8 mph 19.6 mph N/A   Overcast
11:35 PM - - - N/A% 30.28 in 10.0 mi WNW 11.5 mph 19.6 mph N/A   Overcast
11:55 PM -13.0 °F -27.0 °F -18.4 °F 77% 30.30 in 10.0 mi WNW 5.8 mph - N/A   Mostly Cloudy